Wind_Speed
31 29 31 31 33 35 34 33 35 34 37 39 43 41 35 44 46 46 47 48 50 52 53 55 56 56 58 61 62 63 63 68 73 68 66 62 61 60 59 59 55 51 49 49
29 29 30 30 29 28 29 35 38 40 39 43 43 39 40 45 50 51 51 52 53 54 53 49 56 58 59 62 66 66 68 69 72 71 69 67 64 62 60 62 53 52 50 48
31 32 29 28 26 30 32 40 42 45 42 44 50 48 48 49 53 53 50 49 50 43 40 44 32 39 46 53 61 67 67 72 73 74 71 70 68 66 63 63 60 50 56 48
28 27 27 28 31 34 38 41 43 43 46 51 52 56 52 38 33 36 39 36 30 25 28 29 32 30 28 17 38 45 51 56 69 74 74 72 70 69 65 62 59 56 53 53
31 27 30 31 30 37 41 41 42 45 48 48 39 38 29 18 24 25 27 25 24 26 24 23 21 24 18 16 18 25 36 47 55 64 72 70 72 72 69 64 60 57 53 56
32 28 30 34 32 38 42 44 41 43 39 33 25 25 25 25 20 23 25 16 24 32 28 26 24 25 24 24 24 23 29 35 47 56 65 66 71 73 72 67 64 60 56 55
31 27 23 30 32 37 40 42 45 43 30 29 15 16 13 15 14 16 19 20 16 16 25 28 27 31 32 30 32 28 31 31 33 44 55 65 69 73 71 70 67 64 61 58
31 30 27 29 33 40 41 42 45 45 34 31 27 24 22 19 23 18 15 10 21 23 23 23 24 23 23 22 24 26 28 33 33 34 47 57 67 69 69 71 70 68 65 63
33 32 28 31 35 39 42 39 40 37 34 31 27 31 23 26 24 18 21 17 18 22 23 26 25 28 28 20 27 27 33 31 26 28 39 50 60 63 66 69 71 70 68 67
34 38 32 32 36 39 40 37 36 29 32 37 32 34 31 28 25 27 29 29 30 24 24 30 31 27 31 32 25 26 32 35 29 30 37 44 50 57 62 67 69 70 68 67
32 35 35 33 35 39 34 35 32 29 34 39 44 25 31 24 23 30 30 28 28 33 38 40 37 35 35 35 32 20 21 27 28 29 31 42 47 51 56 62 66 67 67 67
37 37 38 37 41 37 32 31 28 33 33 37 35 27 38 39 40 35 33 36 36 37 40 43 40 38 36 37 29 26 28 28 28 25 25 32 42 44 50 56 60 61 61 64
40 39 42 40 35 36 31 26 30 32 32 36 34 38 29 34 32 33 37 39 43 44 45 43 40 38 38 35 34 27 29 24 28 33 29 33 41 43 52 53 55 62 60 59
40 40 42 42 40 31 30 25 26 32 38 34 30 40 29 38 36 40 43 45 48 51 50 50 47 46 47 43 39 35 32 32 27 33 34 35 31 28 18 47 56 63 62 62
40 40 40 41 35 30 33 30 24 31 33 34 33 35 35 35 39 41 45 47 52 51 48 50 49 47 45 48 47 46 42 43 37 34 31 35 30 25 29 33 55 58 55 56
43 41 41 40 32 35 32 31 33 29 28 33 35 32 40 41 40 40 44 50 50 47 31 29 31 31 30 37 43 41 47 47 37 39 35 33 33 27 32 29 31 39 44 47
42 39 40 41 35 35 33 33 34 30 27 27 34 38 41 39 42 40 43 50 38 33 34 31 27 27 21 26 35 43 43 51 42 38 39 33 31 29 30 31 30 29 40 42
38 38 41 42 38 39 36 35 34 31 27 30 34 40 41 45 45 41 47 42 31 31 31 28 28 29 31 32 31 34 43 44 46 41 41 36 35 29 31 34 28 28 30 37
36 38 39 40 40 37 29 32 33 34 27 31 37 38 43 47 43 37 42 40 31 28 29 25 27 28 31 34 37 34 32 43 43 43 46 42 35 33 34 38 39 41 32 30
32 35 38 39 40 38 31 29 30 32 30 32 37 44 47 43 42 35 33 36 31 32 34 36 29 29 31 29 38 38 30 45 42 45 49 46 37 33 34 37 31 26 36 30
35 34 34 36 34 31 29 31 30 32 36 37 42 45 42 40 46 37 25 24 29 29 30 37 38 39 38 26 35 38 33 43 46 48 51 48 42 37 32 27 23 20 35 26
36 35 34 33 33 25 23 23 31 33 35 40 43 46 46 43 41 39 29 20 20 24 30 34 32 36 34 21 32 38 32 40 52 54 52 49 43 38 35 28 26 24 25 26
30 32 34 33 27 20 27 32 31 35 38 43 47 47 49 42 38 34 22 21 20 22 24 29 32 28 19 20 31 37 30 42 55 57 54 48 44 39 36 31 23 24 27 25
30 31 28 26 19 27 26 31 34 36 41 43 44 46 40 37 35 25 22 16 15 20 20 25 30 17 15 18 30 34 39 48 54 52 50 45 42 40 38 32 26 24 25 23
29 22 20 15 21 27 28 30 30 33 36 39 38 39 38 35 32 21 18 19 17 20 20 27 20 10 12 21 30 33 45 55 50 51 43 35 34 40 40 29 24 24 27 28
18 18 16 20 26 28 29 30 31 33 35 37 37 36 37 33 21 15 16 13 14 13 18 17 9 4 6 22 31 36 46 54 51 42 33 37 40 41 34 31 23 28 27 27
Wind_Direction
328 314 306 304 302 302 298 292 291 292 292 287 283 284 279 283 283 278 272 271 270 268 268 267 260 256 253 251 248 244 244 244 240 238 240 237 240 239 236 237 240 239 240 242
327 312 311 305 301 296 294 296 296 292 295 296 293 284 279 281 285 282 279 278 277 276 274 271 272 264 255 247 242 239 238 239 240 234 234 236 236 240 239 238 230 239 240 238
329 321 312 302 293 289 297 299 305 305 301 302 302 292 288 284 285 281 278 276 275 277 267 267 252 254 250 244 241 238 232 231 235 235 229 230 233 235 238 239 238 230 240 240
331 315 308 296 302 305 304 308 305 306 307 305 304 299 296 297 291 282 271 261 264 244 263 266 256 261 249 264 243 238 241 234 231 233 227 225 227 231 234 236 239 235 235 240
331 315 304 303 311 308 309 305 307 311 309 306 312 293 304 308 294 276 272 248 228 233 246 257 259 259 243 261 262 253 244 240 235 235 231 223 222 225 229 233 235 235 232 234
323 319 312 313 315 312 306 305 308 310 306 304 301 299 301 292 287 270 270 246 230 231 249 251 258 260 267 265 256 260 243 238 238 235 236 225 221 221 225 227 231 233 232 230
324 316 303 307 307 302 300 305 310 313 306 306 303 312 317 313 306 284 294 285 246 263 243 250 252 263 272 273 268 274 250 236 241 236 231 229 222 221 221 224 226 229 231 230
316 314 312 312 314 308 310 314 315 314 312 303 301 292 313 286 291 300 283 296 272 264 258 276 285 272 278 285 275 280 262 246 248 241 230 227 222 222 220 221 223 226 229 230
316 318 318 319 318 311 312 316 313 306 304 299 295 299 306 306 297 284 273 257 281 280 268 278 275 282 273 280 268 276 258 241 259 238 232 228 221 221 221 221 220 222 226 229
317 318 320 320 316 311 310 314 314 307 303 299 300 301 317 310 282 277 273 279 283 279 267 279 278 271 259 277 278 279 244 221 239 255 223 224 223 218 221 222 221 221 224 227
310 310 317 317 317 316 313 315 313 303 298 301 310 321 333 327 304 282 283 282 268 261 263 267 268 271 272 274 273 268 255 266 243 231 229 228 220 221 221 223 223 222 223 227
313 316 315 316 318 318 314 314 299 293 297 302 301 314 327 315 306 302 294 286 275 269 267 267 267 266 263 266 269 272 256 251 238 227 230 231 224 220 223 225 225 225 226 227
314 315 316 316 321 316 311 314 302 296 294 313 292 314 315 308 293 289 291 285 280 279 274 272 274 270 265 257 262 264 249 250 247 236 236 241 233 225 226 224 224 225 225 228
308 312 311 314 319 309 306 303 298 287 292 296 296 296 312 298 292 292 292 289 285 279 279 278 274 270 266 257 251 255 245 237 241 245 247 240 239 235 214 223 222 222 223 225
302 309 307 310 316 306 309 312 299 293 293 286 292 296 309 298 292 291 294 288 281 286 288 283 276 270 266 261 250 246 245 237 247 243 245 250 248 234 217 219 222 221 220 223
308 314 309 308 311 305 308 307 308 303 290 289 291 300 304 308 304 305 300 294 294 301 298 295 290 282 273 257 253 243 238 242 235 239 235 238 237 216 222 220 211 217 220 223
312 309 305 308 308 308 311 314 307 300 300 295 292 305 310 309 307 311 302 294 297 296 299 295 294 291 281 261 253 247 231 233 231 227 229 228 229 215 219 220 215 218 218 223
312 309 305 306 310 309 313 315 304 299 295 292 301 308 310 311 310 317 307 299 299 301 303 300 295 292 283 262 257 254 235 225 222 217 221 217 222 218 222 214 215 216 208 214
310 303 304 307 306 309 318 306 301 297 292 298 302 304 310 311 306 313 304 288 292 298 299 296 297 297 281 260 249 247 240 220 214 207 213 211 207 215 220 217 209 219 195 192
310 306 307 307 304 312 314 305 303 300 304 307 311 314 311 312 308 312 311 282 288 283 289 284 294 308 308 264 238 234 235 215 200 191 206 209 204 206 219 221 219 214 201 189
306 305 306 301 302 313 303 306 302 307 313 311 311 313 318 320 319 318 314 272 281 286 287 290 295 301 305 264 231 226 226 207 188 184 202 205 203 199 210 217 221 206 196 181
309 308 306 309 309 315 310 308 304 311 312 314 316 322 324 322 315 317 312 289 292 294 290 296 310 307 294 257 222 216 214 192 180 185 199 202 200 191 199 206 203 189 174 177
311 305 311 307 313 302 310 312 313 314 317 320 322 322 317 317 317 319 308 296 302 296 295 309 301 302 274 240 212 210 198 181 178 187 197 200 198 193 190 205 196 185 170 183
299 305 312 303 320 308 310 316 314 318 320 318 318 313 315 322 320 314 307 290 305 316 311 310 309 296 262 228 206 195 176 173 181 189 195 198 194 195 190 195 204 179 177 192
314 323 321 310 311 309 309 312 315 318 316 316 318 323 323 320 318 306 313 293 302 320 329 329 321 286 266 211 187 180 167 171 179 186 188 191 194 195 184 188 206 180 186 192
321 329 320 320 320 320 320 320 321 324 326 327 327 325 326 325 317 304 304 320 324 332 335 340 339 341 148 167 165 174 163 171 177 183 181 177 174 173 177 185 188 186 191 196
Height
5807 5801 5795 5791 5786 5781 5777 5776 5774 5773 5767 5764 5758 5761 5764 5748 5744 5744 5743 5742 5740 5739 5741 5741 5742 5745 5746 5749 5753 5758 5761 5766 5772 5783 5791 5800 5804 5810 5817 5820 5828 5831 5835 5844
5801 5793 5787 5782 5778 5773 5770 5767 5763 5761 5759 5749 5746 5750 5746 5739 5729 5727 5728 5726 5723 5722 5721 5718 5722 5725 5727 5729 5734 5740 5745 5747 5753 5767 5775 5783 5790 5795 5803 5809 5816 5824 5825 5833
5791 5784 5780 5775 5772 5768 5767 5757 5753 5748 5745 5739 5731 5732 5731 5728 5715 5711 5712 5710 5706 5706 5703 5707 5708 5705 5707 5710 5715 5719 5726 5729 5734 5744 5756 5766 5774 5782 5788 5796 5804 5811 5819 5822
5785 5779 5774 5767 5765 5760 5755 5751 5743 5739 5733 5725 5719 5711 5712 5707 5701 5697 5696 5696 5695 5695 5696 5698 5701 5703 5699 5699 5700 5704 5708 5713 5718 5723 5736 5747 5758 5767 5776 5783 5792 5804 5808 5811
5777 5772 5767 5761 5758 5751 5746 5740 5735 5729 5721 5712 5711 5703 5697 5697 5694 5691 5687 5686 5684 5687 5691 5692 5692 5694 5693 5693 5694 5695 5697 5700 5704 5709 5717 5731 5741 5751 5760 5771 5779 5787 5798 5803
5770 5765 5759 5753 5751 5743 5735 5729 5728 5722 5712 5707 5701 5696 5694 5689 5686 5684 5683 5680 5678 5680 5683 5685 5685 5686 5686 5686 5687 5687 5687 5689 5692 5696 5702 5718 5725 5734 5744 5756 5766 5776 5786 5793
5763 5759 5755 5750 5746 5738 5730 5723 5715 5712 5706 5700 5695 5691 5686 5683 5681 5679 5675 5674 5672 5677 5679 5680 5679 5677 5678 5678 5679 5680 5679 5678 5680 5684 5688 5700 5711 5719 5730 5739 5750 5760 5769 5777
5755 5751 5748 5742 5737 5727 5721 5714 5706 5696 5694 5690 5690 5685 5683 5679 5676 5674 5671 5668 5670 5670 5671 5671 5672 5670 5670 5669 5670 5670 5672 5674 5673 5674 5679 5683 5698 5706 5717 5725 5734 5744 5753 5759
5745 5742 5741 5735 5727 5717 5712 5710 5701 5692 5688 5683 5681 5679 5679 5676 5670 5668 5667 5666 5667 5664 5664 5662 5662 5663 5664 5662 5660 5659 5661 5665 5665 5665 5668 5674 5683 5694 5703 5710 5719 5730 5737 5745
5738 5731 5732 5728 5720 5713 5704 5699 5693 5687 5679 5674 5674 5672 5671 5666 5663 5660 5660 5661 5660 5659 5657 5655 5654 5654 5652 5651 5653 5651 5646 5653 5656 5657 5658 5663 5670 5679 5687 5696 5706 5716 5726 5733
5733 5727 5725 5721 5714 5705 5699 5690 5684 5679 5676 5669 5663 5663 5662 5659 5655 5651 5653 5654 5652 5650 5648 5646 5645 5645 5644 5644 5643 5644 5645 5647 5649 5651 5652 5656 5660 5668 5679 5687 5696 5704 5715 5722
5723 5719 5714 5711 5705 5697 5691 5686 5680 5673 5670 5666 5659 5656 5654 5650 5647 5646 5643 5641 5640 5638 5637 5634 5634 5635 5634 5635 5635 5636 5637 5638 5642 5644 5647 5648 5653 5661 5669 5679 5689 5697 5704 5711
5714 5710 5703 5701 5699 5689 5684 5680 5672 5666 5661 5659 5651 5648 5649 5643 5641 5638 5635 5630 5626 5623 5620 5620 5622 5623 5623 5626 5625 5628 5629 5628 5632 5637 5641 5642 5645 5655 5659 5669 5678 5686 5692 5701
5705 5702 5696 5692 5687 5681 5679 5676 5670 5661 5655 5650 5649 5640 5647 5634 5631 5628 5624 5618 5614 5607 5607 5607 5608 5608 5607 5610 5616 5618 5620 5624 5623 5629 5632 5633 5638 5643 5647 5659 5667 5673 5680 5689
5699 5695 5688 5684 5681 5673 5669 5666 5663 5656 5650 5641 5641 5636 5634 5628 5622 5619 5615 5608 5600 5598 5596 5590 5588 5590 5592 5592 5599 5607 5611 5615 5619 5619 5622 5625 5632 5638 5645 5651 5656 5664 5668 5679
5688 5684 5678 5675 5671 5664 5660 5656 5651 5647 5641 5634 5629 5629 5622 5617 5612 5610 5601 5590 5584 5581 5579 5576 5573 5573 5575 5576 5580 5589 5598 5603 5610 5614 5615 5621 5630 5635 5639 5646 5650 5658 5665 5670
5680 5673 5668 5664 5660 5654 5651 5646 5641 5636 5632 5626 5621 5618 5612 5607 5601 5597 5588 5577 5577 5572 5569 5567 5565 5564 5565 5564 5566 5569 5582 5588 5600 5605 5607 5615 5624 5628 5634 5639 5646 5652 5662 5667
5671 5663 5658 5653 5649 5644 5640 5635 5629 5625 5623 5618 5613 5607 5601 5595 5589 5585 5573 5565 5564 5561 5559 5557 5555 5555 5555 5555 5556 5557 5565 5576 5587 5597 5599 5608 5620 5624 5630 5637 5642 5648 5654 5663
5662 5655 5649 5643 5639 5636 5633 5625 5619 5613 5615 5610 5604 5599 5593 5586 5578 5579 5562 5555 5554 5552 5550 5548 5546 5542 5540 5541 5543 5546 5551 5563 5572 5586 5591 5601 5613 5621 5625 5631 5635 5642 5649 5659
5654 5646 5640 5634 5628 5623 5621 5616 5611 5605 5601 5599 5593 5587 5581 5575 5564 5563 5553 5544 5543 5542 5541 5537 5534 5530 5527 5526 5528 5533 5540 5549 5562 5574 5582 5593 5606 5616 5621 5627 5632 5638 5644 5653
5644 5638 5633 5627 5621 5620 5611 5608 5604 5599 5596 5591 5585 5578 5572 5563 5552 5546 5542 5538 5535 5533 5531 5526 5521 5515 5512 5511 5514 5520 5527 5539 5553 5564 5574 5587 5600 5610 5617 5623 5631 5637 5643 5651
5632 5627 5623 5619 5615 5612 5606 5603 5597 5594 5590 5581 5576 5567 5559 5554 5546 5538 5533 5530 5528 5525 5521 5515 5509 5504 5499 5499 5502 5509 5518 5532 5546 5555 5568 5581 5596 5606 5613 5620 5628 5633 5642 5650
5625 5619 5615 5611 5608 5604 5600 5593 5591 5585 5579 5572 5563 5559 5550 5544 5536 5529 5525 5522 5520 5516 5512 5506 5500 5493 5490 5490 5494 5503 5513 5527 5540 5551 5563 5576 5591 5602 5610 5617 5624 5631 5639 5649
5616 5612 5609 5604 5604 5598 5595 5591 5585 5578 5571 5564 5558 5551 5543 5535 5527 5522 5518 5516 5513 5508 5504 5498 5489 5485 5484 5486 5490 5501 5510 5525 5538 5551 5562 5574 5588 5598 5607 5615 5622 5629 5638 5647
5611 5607 5604 5602 5600 5595 5590 5585 5580 5575 5567 5560 5551 5541 5533 5526 5520 5515 5512 5510 5507 5503 5499 5493 5484 5480 5479 5480 5489 5501 5510 5525 5539 5551 5563 5575 5585 5595 5605 5615 5623 5628 5635 5641
5608 5604 5600 5597 5593 5588 5583 5577 5572 5567 5558 5548 5540 5534 5525 5517 5512 5509 5508 5507 5504 5501 5496 5490 5484 5480 5477 5481 5492 5501 5514 5528 5542 5555 5567 5574 5584 5595 5606 5615 5622 5627 5633 5638